Weather History for Calgary, AB

Change the Weather History Date:

Tuesday, September 3, 2013

  Actual Average Record
Temperature  
Mean Temperature 63 °F -  
Max Temperature 74 °F 62 °F 87 °F (2003)
Min Temperature 52 °F 38 °F 32 °F (1999)
Degree Days  
Heating Degree Days 2    
Growing Degree Days 13 (Base 50)    
Moisture  
Dew Point 51 °F    
Average Humidity 62    
Maximum Humidity 88    
Minimum Humidity 35    
Precipitation  
Precipitation 0.00 in 0.06 in - ()
Sea Level Pressure  
Sea Level Pressure 30.06 in    
Wind  
Wind Speed 8 mph ()    
Max Wind Speed 15 mph    
Max Gust Speed 22 mph    
Visibility 15.4 miles    
Events      
Averages and records for this station are not official NWS values.
T = Trace of Precipitation, MM = Missing Value Source: Averaged Metar Reports

Daily Weather History Graph

Daily Weather History Graph

Search for Another Location

Airport:

Trip Planner

Search our weather history database for the weather conditions in past years. The results will help you decide how hot, cold, wet, or windy it might be!

Date:

Astronomy

Sep. 03, 2013 Rise Set
Actual Time 6:53 AM MDT 8:16 PM MDT
Civil Twilight 6:18 AM MDT 8:50 PM MDT
Nautical Twilight 5:36 AM MDT 9:32 PM MDT
Astronomical Twilight 4:50 AM MDT 10:17 PM MDT
Moon 5:05 AM MDT (9/3) 7:07 PM MDT (9/3)
Length of Visible Light 14h 31m
Length of Day
13h 23m
Waning Crescent, 3% of the Moon is Illuminated
Sep 3
Waning Crescent
Sep 5
New
Sep 12
First Quarter
Sep 19
Full
Sep 26
Last Quarter

Hourly Weather History & Observations

Time (MDT) Temp. Dew Point Humidity Pressure Visibility Wind Dir Wind Speed Gust Speed Precip Events Conditions
12:00 AM 59.0 °F 50.0 °F 72% 29.96 in 15.0 mi NW 8.1 mph - N/A   Mostly Cloudy
1:00 AM 59.0 °F 50.0 °F 72% 29.96 in 15.0 mi NW 8.1 mph - N/A   Mostly Cloudy
2:00 AM 55.4 °F 48.2 °F 77% 29.99 in 15.0 mi NNW 9.2 mph - N/A   Scattered Clouds
3:00 AM 53.6 °F 48.2 °F 82% 30.01 in 15.0 mi NNW 6.9 mph - N/A   Partly Cloudy
4:00 AM 51.8 °F 48.2 °F 88% 30.02 in 15.0 mi NNW 6.9 mph - N/A   Partly Cloudy
5:00 AM 55.4 °F 48.2 °F 77% 30.03 in 15.0 mi North 8.1 mph - N/A   Mostly Cloudy
6:00 AM 57 °F 49 °F 67% 30.04 in 15 mi NNW 9.2 mph - -   Mostly Cloudy
6:00 AM 57.2 °F 48.2 °F 72% 30.04 in 15.0 mi NW 9.2 mph - N/A   Mostly Cloudy
7:00 AM 57.2 °F 48.2 °F 72% 30.06 in 30.0 mi NNW 10.4 mph - N/A   Mostly Cloudy
8:00 AM 55.4 °F 50.0 °F 82% 30.08 in 40.0 mi NW 5.8 mph - N/A   Mostly Cloudy
9:00 AM 59.0 °F 50.0 °F 72% 30.10 in 40.0 mi NNW 8.1 mph - N/A   Mostly Cloudy
10:00 AM 60.8 °F 50.0 °F 68% 30.11 in 40.0 mi NNW 8.1 mph - N/A   Mostly Cloudy
11:00 AM 64.4 °F 51.8 °F 64% 30.13 in 40.0 mi WNW 6.9 mph - N/A   Mostly Cloudy
12:00 PM 69 °F 52 °F 45% 30.11 in 37 mi SE 4.6 mph - -   Scattered Clouds
12:00 PM 69.8 °F 51.8 °F 53% 30.11 in 40.0 mi South 5.8 mph - N/A   Mostly Cloudy
1:00 PM 69.8 °F 51.8 °F 53% 30.11 in 40.0 mi SSE 9.2 mph - N/A   Mostly Cloudy
2:00 PM 71.6 °F 51.8 °F 50% 30.11 in 40.0 mi SSE 8.1 mph - N/A   Mostly Cloudy
3:00 PM 71.6 °F 51.8 °F 50% 30.11 in 40.0 mi SSW 11.5 mph 19.6 mph N/A   Overcast
4:00 PM 71.6 °F 51.8 °F 50% 30.11 in 40.0 mi SSW 6.9 mph - N/A   Overcast
5:00 PM 73.4 °F 53.6 °F 50% 30.09 in 40.0 mi SSW 8.1 mph - N/A   Overcast
6:00 PM 73 °F 51 °F 35% 30.07 in 37 mi South 12.7 mph - -   Overcast
6:00 PM 73.4 °F 51.8 °F 47% 30.07 in 40.0 mi South 12.7 mph 21.9 mph N/A   Overcast
7:00 PM 71.6 °F 51.8 °F 50% 30.06 in 40.0 mi South 10.4 mph 19.6 mph N/A   Mostly Cloudy
8:00 PM 71.6 °F 51.8 °F 50% 30.04 in 20.0 mi South 15.0 mph 21.9 mph N/A   Mostly Cloudy
9:00 PM 69.8 °F 51.8 °F 53% 30.05 in 15.0 mi South 15.0 mph 21.9 mph N/A   Scattered Clouds
10:00 PM 66.2 °F 51.8 °F 60% 30.07 in 15.0 mi South 10.4 mph - N/A   Partly Cloudy
11:00 PM 62.6 °F 53.6 °F 72% 30.06 in 15.0 mi South 9.2 mph - N/A   Partly Cloudy